Deptford, New Jersey, United States
Lat: 39.83N, Lon: 75.13W
Wx Zone: NJZ017
Local Info
Past Weather Observations for Monday, January 19, 2015

NOTE: This archive is for the closest National Weather Service station to Deptford. Information may differ from the station used for current weather conditions.

Click here for Long-term Archive

Time Weather Temperature Dewpoint Humidity Pressure Winds Precip Visibility
23:54
Partly Cloudy
36°F / 2°C 25°F / -4°C 65% 29.95 in
(1014 mb)
SSW 9.2 mph
(SSW 15 kph)
- 10SM
22:54
Overcast
41°F / 5°C 25°F / -4°C 53% 29.95 in
(1014 mb)
W 10.4 mph
(W 17 kph)
- 10SM
21:54
Overcast
39°F / 4°C 27°F / -3°C 61% 29.95 in
(1014 mb)
SSW 10.4 mph
(SSW 17 kph)
- 10SM
20:54
Overcast
39°F / 4°C 25°F / -4°C 56% 29.95 in
(1014 mb)
SSW 5.8 mph
(SSW 9 kph)
- 10SM
19:54
Overcast
39°F / 4°C 25°F / -4°C 56% 29.95 in
(1014 mb)
SSW 8.1 mph
(SSW 13 kph)
- 10SM
18:54
Overcast
41°F / 5°C 25°F / -4°C 53% 29.95 in
(1014 mb)
W 9.2 mph
(W 15 kph)
- 10SM
17:54
Overcast
41°F / 5°C 25°F / -4°C 53% 29.95 in
(1014 mb)
SSW 9.2 mph
(SSW 15 kph)
- 10SM
16:54
Mostly Cloudy
43°F / 6°C 23°F / -5°C 46% 29.92 in
(1013 mb)
W 10.4 mph
(W 17 kph)
- 10SM
15:54
Mostly Cloudy
43°F / 6°C 23°F / -5°C 46% 29.92 in
(1013 mb)
W 9.2 mph
(W 15 kph)
- 10SM
14:54
Mostly Cloudy
43°F / 6°C 21°F / -6°C 42% 29.92 in
(1013 mb)
W 15 mph
(W 24 kph)
- 10SM
13:54
Mostly Cloudy
45°F / 7°C 23°F / -5°C 42% 29.92 in
(1013 mb)
NW 17.3 mph
(NW 28 kph)
- 10SM
12:54
Mostly Cloudy
45°F / 7°C 23°F / -5°C 42% 29.92 in
(1013 mb)
NW 19.6 mph
(NW 32 kph)
- 10SM
11:54
Partly Cloudy
45°F / 7°C 27°F / -3°C 49% 29.92 in
(1013 mb)
W 16.1 mph
(W 26 kph)
- 10SM
10:54
Partly Cloudy
43°F / 6°C 30°F / -1°C 61% 29.92 in
(1013 mb)
W 16.1 mph
(W 26 kph)
- 10SM
09:54
Mostly Cloudy
39°F / 4°C 30°F / -1°C 70% 29.95 in
(1014 mb)
SSW 19.6 mph
(SSW 32 kph)
- 10SM
08:54
Overcast
37°F / 3°C 30°F / -1°C 75% 29.92 in
(1013 mb)
SSW 11.5 mph
(SSW 19 kph)
- 10SM
07:54
Overcast
36°F / 2°C 30°F / -1°C 81% 29.92 in
(1013 mb)
SSW 13.8 mph
(SSW 22 kph)
- 10SM
06:54
Overcast
36°F / 2°C 30°F / -1°C 81% 29.89 in
(1012 mb)
SSW 12.7 mph
(SSW 20 kph)
- 10SM
06:25
Overcast
34°F / 1°C 30°F / -1°C 87% 29.89 in
(1012 mb)
SSW 11.5 mph
(SSW 19 kph)
- 10SM
05:54
Overcast
34°F / 1°C 30°F / -1°C 87% 29.89 in
(1012 mb)
SSW 8.1 mph
(SSW 13 kph)
- 8SM
05:12
Overcast
34°F / 1°C 30°F / -1°C 87% 29.86 in
(1011 mb)
SSW 10.4 mph
(SSW 17 kph)
- 7SM
04:54
Overcast
Fog And Mist
34°F / 1°C 30°F / -1°C 87% 29.86 in
(1011 mb)
SSW 8.1 mph
(SSW 13 kph)
- 6SM
04:02
Mostly Cloudy
Fog And Mist
34°F / 1°C 30°F / -1°C 87% 29.86 in
(1011 mb)
SSW 10.4 mph
(SSW 17 kph)
- 5SM
03:54
Mostly Cloudy
Fog And Mist
32°F / 0°C 30°F / -1°C 93% 29.86 in
(1011 mb)
SSW 10.4 mph
(SSW 17 kph)
- 4SM
02:54
Clear
Fog And Mist
30°F / -1°C 28°F / -2°C 93% 29.86 in
(1011 mb)
SSW 6.9 mph
(SSW 11 kph)
- 3SM
01:54
Clear
Fog And Mist
34°F / 1°C 30°F / -1°C 87% 29.86 in
(1011 mb)
SW 8.1 mph
(SW 13 kph)
- 4SM
01:36
Clear
Fog And Mist
34°F / 1°C 30°F / -1°C 87% 29.86 in
(1011 mb)
SW 10.4 mph
(SW 17 kph)
- 4SM
00:54
Clear
Fog And Mist
34°F / 1°C 30°F / -1°C 87% 29.83 in
(1010 mb)
SSW 9.2 mph
(SSW 15 kph)
- 5SM
00:49
Clear
Fog And Mist
34°F / 1°C 30°F / -1°C 87% 29.83 in
(1010 mb)
SSW 9.2 mph
(SSW 15 kph)
- 6SM
Time Weather Temperature Dewpoint Humidity Pressure Winds Precip Visibility


Weather for websites

WeatherForYou.com, LLC is not responsible for any damages or problems caused by this service. Current weather conditions are obtained from the closest station including government and personal stations which may have varying degrees of accuracy. Weather forecasts are derived from the NOAA NDFD. Like all things, this site belongs to Jesus Christ... He just trusts me to maintain it. If you have any questions or comments email webmaster@weatherforyou.com

Copyright © 2015, WeatherForYou.com LLC. All rights reserved.